[[{"header":{"parameterUnit":"m.s-1","parameterCategory":1,"la1":30.2991,"la2":30.254,"lo1":-89.0895,"lo2":-89.0444,"dy":0.0017,"dx":0.0017,"nx":28,"ny":28,"refTime":"2024-06-20T09:00:00:Z","depth":0,"parameterNumber":2,"parameterNumberName":"U-component_of_WINDS"},"data":[0,0,0,0,0,0,0,0,0,0,0,0,0,0,0,0,0,0,0,0,0,0,0,0,0,0,0,0,0,0,0,0,0,0,0,0,0,0,0,0,0,0,0,0,0,0,0,0,0,0,0,0,0,0,0,0,0,0,-4.2771,-4.277,0,-4.2678,-4.2677,-4.2676,-4.2513,-4.2509,-4.2506,-4.2503,-4.241,-4.241,-4.241,0,0,0,0,0,0,0,0,0,0,0,0,0,-4.2811,-4.2811,-4.2772,-4.277,-4.2769,-4.2679,-4.2677,-4.2676,-4.2513,-4.2509,-4.2506,-4.2502,-4.2409,-4.241,-4.241,0,0,0,0,0,0,0,0,0,0,0,0,0,-4.2764,-4.2811,-4.2772,-4.2677,-4.2667,-4.2679,-4.2677,-4.2676,-4.2514,-4.2509,-4.2505,-4.25,-4.2409,-4.241,-4.241,-4.2507,0,0,-4.2412,-4.2412,0,0,0,0,0,0,0,0,-4.2767,-4.2762,-4.2692,-4.2683,-4.2673,-4.2602,-4.2656,-4.2619,-4.2515,-4.2572,-4.2503,-4.2498,-4.2478,-4.2472,-4.2465,-4.2503,-4.2499,-4.2412,-4.2413,-4.2413,-4.2413,0,0,0,0,0,0,0,-4.277,-4.2765,-4.2735,-4.2691,-4.268,-4.264,-4.2628,-4.2649,-4.2552,-4.2567,-4.2555,-4.2546,-4.2471,-4.2465,-4.2462,-4.2497,-4.2412,-4.2413,-4.2413,-4.2413,-4.2611,-4.2616,0,0,0,0,0,0,-4.2787,-4.2769,-4.2738,-4.2732,-4.2709,-4.2643,-4.263,-4.263,-4.2551,-4.2535,-4.255,-4.2539,-4.2466,-4.2461,-4.2458,-4.2566,-4.2413,-4.2413,-4.2414,-4.2606,-4.2612,-4.2617,0,0,0,0,0,0,-4.2788,-4.2786,-4.2741,-4.2747,-4.2739,-4.2647,-4.2649,-4.263,-4.2623,-4.2539,-4.2521,-4.2561,-4.2462,-4.2457,-4.2496,-4.256,-4.2414,-4.2414,-4.26,-4.2608,-4.2615,-4.2784,0,0,0,0,0,0,-4.279,-4.2787,-4.2822,-4.2749,-4.2739,-4.2781,-4.2652,-4.2632,-4.2625,-4.2609,-4.2544,-4.2529,-4.2458,-4.2496,-4.2497,-4.2559,-4.2415,-4.2594,-4.2604,-4.2612,-4.2772,-4.2796,-4.2816,0,0,0,0,0,-4.2792,-4.2874,-4.2825,-4.2822,-4.2781,-4.2785,-4.2779,-4.2696,-4.2631,-4.2665,-4.2611,-4.2531,-4.2554,-4.2502,-4.2501,-4.2564,-4.259,-4.2601,-4.2612,-4.2762,-4.2791,-4.2816,0,0,0,0,0,0,-4.2957,-4.2862,-4.2807,-4.2867,-4.2836,-4.2757,-4.2799,-4.2729,-4.2716,-4.2702,-4.2599,-4.2586,-4.2639,-4.2605,-4.2549,-4.2654,-4.2559,-4.2571,-4.2674,-4.2701,-4.2723,-4.2729,-4.2415,0,0,0,0,0,-4.3,-4.3011,-4.2928,-4.2989,-4.2976,-4.2891,-4.289,-4.2828,-4.2791,-4.2777,-4.2726,-4.2694,-4.2693,-4.2695,-4.269,-4.2767,-4.2751,-4.281,-4.2832,-4.2851,-4.2862,-4.29,-4.2926,-4.2653,-4.2653,-4.2653,0,0,-4.3089,-4.3039,-4.3052,-4.3021,-4.2989,-4.3003,-4.288,-4.29,-4.291,-4.278,-4.2814,-4.2776,-4.2733,-4.2792,-4.2815,-4.2765,-4.2934,-4.2865,-4.288,-4.2881,-4.2914,-4.294,-4.2963,-4.2661,-4.266,-4.2658,0,0,-4.3259,-4.3222,-4.3269,-4.324,-4.3194,-4.3137,-4.3149,-4.3082,-4.3051,-4.3083,-4.2987,-4.2997,-4.2999,-4.2973,-4.296,-4.3123,-4.3049,-4.3125,-4.324,-4.3279,-4.3301,-4.3319,-4.3378,-4.34,-4.3136,-4.3136,-4.3136,0,-4.3376,-4.3393,-4.3302,-4.3329,-4.3318,-4.3202,-4.3249,-4.3226,-4.3181,-4.3177,-4.3122,-4.3122,-4.3085,-4.3137,-4.3177,-4.317,-4.3181,-4.3131,-4.3305,-4.3323,-4.3338,-4.3393,-4.3415,-4.3146,-4.3145,-4.3144,-4.3143,0,-4.3539,-4.3553,-4.3596,-4.3556,-4.355,-4.3587,-4.3504,-4.3509,-4.345,-4.3399,-4.3435,-4.3387,-4.337,-4.3378,-4.332,-4.3422,-4.3393,-4.3323,-4.3226,-4.3376,-4.3425,-4.3445,-4.3159,-4.3156,-4.3153,-4.3151,0,0,-4.3808,-4.3718,-4.3735,-4.3716,-4.3657,-4.3666,-4.3699,-4.3683,-4.369,-4.3664,-4.3689,-4.3694,-4.363,-4.3616,-4.3553,-4.3588,-4.3721,-4.3514,-4.3511,-4.3554,-4.3831,-4.3884,-4.3909,-4.3672,-4.3675,-4.3678,-4.3835,0,-4.3965,-4.4014,-4.3935,-4.4003,-4.4015,-4.3906,-4.3934,-4.3902,-4.3857,-4.3861,-4.381,-4.3816,-4.373,-4.3721,-4.3751,-4.3699,-4.3775,-4.3686,-4.3695,-4.3696,-4.3708,-4.3935,-4.3989,-4.4139,-4.3853,-4.3857,-4.3859,0,-4.4154,-4.4137,-4.4206,-4.4144,-4.4146,-4.4173,-4.4153,-4.4158,-4.412,-4.4085,-4.4071,-4.3997,-4.4026,-4.3933,-4.3972,-4.3913,-4.3912,-4.3888,-4.3892,-4.3888,-4.3786,-4.3937,-4.4185,-4.4208,-4.3889,-4.3886,-4.3884,0,-4.4343,-4.4337,-4.4378,-4.4365,-4.4294,-4.4316,-4.4287,-4.4245,-4.4241,-4.4224,-4.422,-4.4207,-4.42,-4.4192,-4.4118,-4.4057,-4.4167,-4.4067,-4.4138,-4.414,-4.4165,-4.4164,-4.4415,-4.4166,-4.4166,-4.4166,-4.4165,0,-4.4526,-4.4573,-4.4462,-4.4488,-4.4537,-4.4447,-4.4499,-4.446,-4.4423,-4.444,-4.4345,-4.4363,-4.4264,-4.4271,-4.4214,-4.4255,-4.4253,-4.4225,-4.4209,-4.4233,-4.4237,-4.423,-4.4218,-4.4171,-4.417,-4.4169,-4.4168,0,-4.4744,-4.4672,-4.471,-4.464,-4.4624,-4.4664,-4.4604,-4.4625,-4.4575,-4.4597,-4.4597,-4.4518,-4.4522,-4.4447,-4.4436,-4.4398,-4.4465,-4.4431,-4.4478,-4.4466,-4.4542,-4.4536,-4.4797,-4.4827,-4.456,-4.4563,-4.4565,0,-4.4865,-4.4898,-4.4833,-4.4837,-4.4813,-4.4821,-4.4817,-4.473,-4.4729,-4.469,-4.4716,-4.4713,-4.4705,-4.4717,-4.4659,-4.4651,-4.4615,-4.4707,-4.4613,-4.4637,-4.4616,-4.4615,-4.4618,-4.4727,-4.473,-4.4733,-4.4735,0,-4.5087,-4.5051,-4.5047,-4.5033,-4.503,-4.5015,-4.4993,-4.5002,-4.4908,-4.4913,-4.4915,-4.491,-4.4899,-4.4897,-4.4878,-4.485,-4.4778,-4.4766,-4.4782,-4.4806,-4.4832,-4.4819,-4.4531,-4.476,-4.4757,-4.4755,-4.4754,-4.4753,-4.526,-4.5285,-4.5243,-4.5243,-4.5218,-4.5201,-4.5217,-4.5169,-4.517,-4.5154,-4.5104,-4.5116,-4.5079,-4.5046,-4.5024,-4.5033,-4.4988,-4.5011,-4.5016,-4.5023,-4.5037,-4.4832,-4.5029,-4.5029,-4.5028,-4.5027,-4.5027,0,-4.5477,-4.5445,-4.5446,-4.5419,-4.542,-4.5352,-4.5325,-4.5331,-4.5342,-4.5314,-4.5309,-4.5313,-4.5311,-4.5254,-4.5245,-4.5264,-4.523,-4.5264,-4.5261,-4.5256,-4.5079,-4.5065,-4.5291,-4.5291,-4.5291,-4.5291,-4.5291,-4.5291,-4.559,-4.5628,-4.5588,-4.5614,-4.5581,-4.5592,-4.5583,-4.5567,-4.5543,-4.5552,-4.555,-4.5513,-4.5473,-4.5461,-4.5457,-4.544,-4.5442,-4.5487,-4.5459,-4.5294,-4.5269,-4.5244,-4.5231,-4.5488,-4.5488,-4.5636,-4.5637,-4.5638]},{"header":{"parameterUnit":"m.s-1","parameterCategory":1,"la1":30.2991,"la2":30.254,"lo1":-89.0895,"lo2":-89.0444,"dy":0.0017,"dx":0.0017,"nx":28,"ny":28,"refTime":"2024-06-20T09:00:00:Z","depth":0,"parameterNumber":3,"parameterNumberName":"V-component_of_WINDS"},"data":[0,0,0,0,0,0,0,0,0,0,0,0,0,0,0,0,0,0,0,0,0,0,0,0,0,0,0,0,0,0,0,0,0,0,0,0,0,0,0,0,0,0,0,0,0,0,0,0,0,0,0,0,0,0,0,0,0,0,2.535,2.5349,0,2.5259,2.5258,2.5257,2.5241,2.5242,2.5243,2.5244,2.5139,2.5136,2.5132,0,0,0,0,0,0,0,0,0,0,0,0,0,2.5501,2.5498,2.535,2.5349,2.5347,2.5259,2.5258,2.5257,2.5241,2.5242,2.5243,2.5244,2.5141,2.5136,2.5132,0,0,0,0,0,0,0,0,0,0,0,0,0,2.5425,2.5497,2.535,2.5329,2.5327,2.5259,2.5258,2.5256,2.5241,2.5242,2.5243,2.5245,2.5142,2.5137,2.5132,2.5075,0,0,2.5115,2.5113,0,0,0,0,0,0,0,0,2.5429,2.5419,2.5333,2.5331,2.5328,2.5263,2.5273,2.5195,2.5241,2.5273,2.5244,2.5245,2.5179,2.5171,2.515,2.507,2.5065,2.5115,2.5112,2.5109,2.5108,0,0,0,0,0,0,0,2.5434,2.5423,2.5313,2.5332,2.5329,2.5322,2.5312,2.5258,2.522,2.527,2.5269,2.5259,2.5177,2.5156,2.5148,2.5064,2.5115,2.511,2.5107,2.5105,2.4933,2.4932,0,0,0,0,0,0,2.5445,2.5428,2.5316,2.5311,2.5383,2.5318,2.5308,2.5282,2.5221,2.5213,2.5258,2.5259,2.5164,2.5154,2.5144,2.5074,2.5109,2.5105,2.5101,2.4934,2.4933,2.4931,0,0,0,0,0,0,2.5448,2.5435,2.532,2.5369,2.5354,2.5314,2.5286,2.528,2.5258,2.5212,2.5204,2.5244,2.5165,2.5152,2.5093,2.507,2.5102,2.5097,2.4936,2.4934,2.4932,2.4932,0,0,0,0,0,0,2.5453,2.5436,2.5416,2.5369,2.5351,2.5273,2.5285,2.5277,2.5251,2.525,2.5196,2.5188,2.5165,2.5101,2.5088,2.5063,2.5093,2.4938,2.4935,2.4933,2.4934,2.493,2.4927,0,0,0,0,0,2.5458,2.5417,2.5415,2.5402,2.5326,2.5272,2.5261,2.5239,2.5249,2.5227,2.5197,2.5189,2.5076,2.5095,2.508,2.5053,2.4939,2.4936,2.4933,2.4935,2.4931,2.4927,0,0,0,0,0,0,2.5457,2.541,2.5407,2.5351,2.5316,2.5269,2.5241,2.5235,2.5193,2.5194,2.5165,2.5152,2.5095,2.5069,2.5092,2.4996,2.5008,2.5001,2.5015,2.501,2.5007,2.5013,2.5089,0,0,0,0,0,2.5452,2.5415,2.5375,2.5328,2.5312,2.528,2.5255,2.5242,2.5202,2.5186,2.5152,2.5112,2.5067,2.5038,2.4994,2.4932,2.4918,2.4906,2.4902,2.49,2.4893,2.4858,2.4852,2.4921,2.4921,2.4921,0,0,2.5437,2.5407,2.5385,2.5328,2.5299,2.5259,2.5267,2.5223,2.5193,2.5178,2.5122,2.5096,2.5049,2.4989,2.496,2.4965,2.4872,2.4896,2.4894,2.4889,2.4854,2.4848,2.4842,2.4919,2.4919,2.4919,0,0,2.5391,2.5365,2.5324,2.5297,2.5256,2.5235,2.5226,2.5181,2.5164,2.5109,2.5098,2.5059,2.4983,2.495,2.4923,2.4869,2.486,2.4856,2.4836,2.4802,2.4797,2.4792,2.4771,2.4764,2.485,2.485,2.485,0,2.5377,2.5319,2.5303,2.5261,2.5236,2.5227,2.5184,2.5157,2.5101,2.5082,2.509,2.4996,2.4963,2.4895,2.4883,2.4862,2.4848,2.486,2.48,2.4795,2.479,2.4769,2.4762,2.485,2.485,2.485,2.485,0,2.5304,2.5264,2.5236,2.5188,2.5159,2.5117,2.5091,2.5064,2.5055,2.5033,2.4976,2.4938,2.4887,2.487,2.4858,2.4801,2.4805,2.4807,2.4817,2.4783,2.4763,2.4755,2.4849,2.485,2.485,2.485,0,0,2.5249,2.5197,2.5186,2.5165,2.5121,2.5088,2.5045,2.5,2.4976,2.494,2.4901,2.4839,2.4842,2.4812,2.4796,2.4767,2.4726,2.4772,2.4771,2.4763,2.4658,2.4655,2.4647,2.4721,2.472,2.4719,2.4662,0,2.5195,2.5123,2.5108,2.5044,2.5006,2.5,2.4962,2.493,2.4909,2.4872,2.4849,2.4805,2.4812,2.4794,2.4765,2.4737,2.4704,2.4741,2.4681,2.468,2.4691,2.4637,2.4632,2.458,2.4654,2.4653,2.4652,0,2.5122,2.5088,2.5021,2.4985,2.4968,2.4935,2.4893,2.4859,2.4822,2.4809,2.4779,2.4767,2.472,2.4737,2.4671,2.4697,2.4672,2.4655,2.4652,2.4643,2.4661,2.4623,2.4563,2.4555,2.464,2.4641,2.4642,0,2.5086,2.5025,2.4977,2.4959,2.4915,2.4892,2.4872,2.4837,2.4811,2.4774,2.4756,2.4713,2.4687,2.4653,2.4629,2.4644,2.4565,2.4579,2.455,2.455,2.4529,2.453,2.4462,2.4519,2.4519,2.4519,2.452,0,2.5026,2.4984,2.4961,2.4931,2.4884,2.4868,2.4822,2.4801,2.4771,2.4735,2.4726,2.4692,2.4665,2.4627,2.4608,2.4555,2.4544,2.453,2.4525,2.4529,2.4531,2.451,2.4511,2.4517,2.4518,2.4518,2.4519,0,2.4976,2.4959,2.4907,2.4872,2.4862,2.4829,2.4797,2.4767,2.4749,2.4704,2.4692,2.4662,2.4617,2.4592,2.4533,2.4521,2.4461,2.4459,2.4475,2.4472,2.4443,2.4445,2.4356,2.4343,2.4412,2.4411,2.4411,0,2.4937,2.4906,2.487,2.4847,2.4828,2.4792,2.4767,2.4751,2.4724,2.4682,2.4656,2.4612,2.4575,2.4503,2.4473,2.4429,2.4424,2.4396,2.4416,2.4422,2.442,2.4421,2.4417,2.4391,2.439,2.439,2.4389,0,2.4869,2.4863,2.483,2.4794,2.4766,2.4736,2.4705,2.4687,2.4665,2.4636,2.4593,2.4565,2.4508,2.4463,2.4418,2.4393,2.4386,2.4385,2.4375,2.4376,2.4386,2.4378,2.4462,2.4385,2.4386,2.4386,2.4386,2.4386,2.4821,2.4793,2.4765,2.4728,2.4705,2.4678,2.4649,2.4629,2.4594,2.4549,2.4542,2.4495,2.446,2.4399,2.4374,2.4335,2.434,2.4326,2.4322,2.4318,2.4316,2.4396,2.4327,2.4327,2.4327,2.4327,2.4327,0,2.475,2.4733,2.47,2.4661,2.4632,2.4635,2.4603,2.4577,2.4537,2.4507,2.4473,2.4423,2.438,2.435,2.4306,2.4281,2.4276,2.4269,2.4269,2.4263,2.4315,2.4327,2.4274,2.4274,2.4274,2.4274,2.4274,2.4274,2.471,2.4663,2.4655,2.4597,2.4579,2.4536,2.4517,2.4492,2.4468,2.4414,2.438,2.4363,2.4332,2.4287,2.4247,2.4239,2.4222,2.4215,2.4206,2.4254,2.4259,2.4265,2.4276,2.4212,2.4212,2.4156,2.4156,2.4156]}]]